Погода в Усть-Илыче

Россия / Республика Коми     62°30′58″N   56°44′34″E
темп.,
°C
ветер,
м/с
пор.,
м/с
влажн.,
%
обл.,
%
осадки,
мм/ч
давл.,
гПа
погр.,
м
27 сентября, пн
пн2700:00+3в3966100 0.0 1028517
03:00+1в31075100 0.0 1029339
06:00+1в41175100 0.0 1030409
09:00+4вюв496399 0.0 1032632
12:00+8юв46465 0.0 10321132
15:00+7вюв355225 0.0 1032935
18:00+3в277470 0.0 1034152
21:00+2вюв2582100 0.0 1034133
28 сентября, вт
вт2800:00+1юв118382 0.0 103410
03:000юз1185100 0.0 103410
06:00+1юз1181100 0.0 103317
09:00+4зсз1266100 0.0 1032359
12:00+7сз2358100 0.0 1031791
15:00+7ссз136181 0.0 1030993
18:00+3ссз239099 0.0 103068
21:00+4сз1295100 0.0 1030144
29 сентября, ср
ср2900:00+4сз1197100 0.1 103083
03:00+4сз1297100 0.2 103092
06:00+4ссз1195100 0.0 103056
09:00+5зсз1191100 0.0 1031188
12:00+7сз1281100 0.0 1030568
15:00+7зсз237665 0.0 1030699
18:00+4з229321 0.0 102919
21:00+3з2396100 0.0 102848
30 сентября, чт
чт3000:00+4зюз2691100 0.0 1027180
03:00+5юз3790100 0.0 1026223
06:00+5зюз279380 0.0 1024275
09:00+6зсз2591100 0.0 1024346
12:00+7сз3586100 0.0 1024703
15:00+6сз3790100 0.1 1024458
18:00+6сз3892100 0.0 1024438
21:00+6сз3892100 0.0 1024406
1 октября, пт
пт100:00+6ссз2795100 0.1 1025406
03:00+6ссз2694100 0.2 1025441
06:00+3с2796100 0.0 1026309
09:00+5с3568100 0.0 1027472
12:00+7с2355100 0.0 1028702
15:00+7ссз24563 0.0 1028583
18:00+2ссз11730 0.0 102910
21:00+1зсз11785 0.0 103010